Date String (YYYY-MM-DD hh:mm:ss) UTC,Instrument flags,Ambient pressure (hPa),Sample flow (lpm),Bypass flow (lpm),Sample temperature (°C),Ambient temperature (°C),ASC tube jacket temperature (°C),LED temperature (°C),Box temperature (°C),Sample RH (%),Span deviation,Mass concentration (μg/m³),Mass concentration (μg/m³),Mass concentration (μg/m³)
DateTimeUTC,F1_M11,P_M11,Q1_M11,Q2_M11,T1_M11,T2_M11,T3_M11,T4_M11,T5_M11,U1_M11,ZSPAN_M11,X0_M11,X2_M11,X1_M11
2022-03-03 17:00:00,,0827.6,4.98,0.00,26.8,26.1,00.0,35.6,28.7,11.0,0000.0,0004.78,0001.54,0001.07
2022-03-03 17:01:00,,0827.6,5.01,0.00,26.8,26.1,00.0,35.7,28.7,11.1,0000.0,0004.53,0001.53,0001.06
2022-03-03 17:02:00,,0827.6,5.01,0.00,26.8,26.2,00.0,35.7,28.7,11.2,0000.0,0004.47,0001.50,0001.06
2022-03-03 17:03:00,,0827.7,5.00,0.00,26.9,26.2,00.0,35.7,28.7,10.9,0000.0,0004.52,0001.51,0001.05
2022-03-03 17:04:00,,0827.7,4.99,0.00,26.9,26.2,00.0,35.7,28.8,10.9,0000.0,0004.65,0001.49,0001.04
2022-03-03 17:05:00,,0827.7,5.00,0.00,26.9,26.2,00.0,35.7,28.8,11.1,0000.0,0005.27,0001.49,0001.04
2022-03-03 17:06:00,,0827.7,5.00,0.00,26.9,26.3,00.0,35.7,28.8,11.2,0000.0,0005.89,0001.49,0001.05
2022-03-03 17:07:00,,0827.7,5.00,0.00,27.0,26.3,00.0,35.8,28.8,11.3,0000.0,0005.83,0001.50,0001.05
2022-03-03 17:08:00,,0827.7,5.00,0.00,27.0,26.3,00.0,35.8,28.8,11.1,0000.0,0005.10,0001.47,0001.03
2022-03-03 17:09:00,,0827.6,5.00,0.00,27.0,26.3,00.0,35.8,28.9,11.0,0000.0,0005.08,0001.48,0001.04
2022-03-03 17:10:00,,0827.6,4.98,0.00,27.0,26.3,00.0,35.8,28.9,11.1,0000.0,0005.06,0001.52,0001.04
2022-03-03 17:11:00,,0827.6,4.99,0.00,27.0,26.4,00.0,35.8,28.9,10.6,0000.0,0004.95,0001.47,0001.05
2022-03-03 17:12:00,,0827.5,5.01,0.00,27.1,26.4,00.0,35.9,28.9,10.7,0000.0,0005.04,0001.49,0001.06
2022-03-03 17:13:00,,0827.5,5.01,0.00,27.1,26.4,00.0,35.9,29.0,11.6,0000.0,0006.71,0001.57,0001.09
2022-03-03 17:14:00,,0827.5,4.98,0.00,27.1,26.4,00.0,35.9,29.0,11.6,0000.0,0007.19,0001.63,0001.11
2022-03-03 17:15:00,,0827.5,5.00,0.00,27.1,26.5,00.0,35.9,29.0,11.8,0000.0,0007.33,0001.67,0001.13
2022-03-03 17:16:00,,0827.5,5.01,0.00,27.1,26.5,00.0,36.0,29.0,11.9,0000.0,0006.46,0001.76,0001.14
2022-03-03 17:17:00,,0827.5,5.00,0.00,27.2,26.5,00.0,36.0,29.0,11.6,0000.0,0005.78,0001.80,0001.16
2022-03-03 17:18:00,,0827.5,5.00,0.00,27.2,26.5,00.0,36.0,29.1,11.5,0000.0,0005.36,0001.80,0001.17
2022-03-03 17:19:00,,0827.5,4.99,0.00,27.2,26.5,00.0,36.0,29.1,11.6,0000.0,0005.45,0001.83,0001.20
2022-03-03 17:20:00,,0827.5,5.00,0.00,27.2,26.5,00.0,36.0,29.1,11.2,0000.0,0005.44,0001.83,0001.21
2022-03-03 17:21:00,,0827.5,5.00,0.00,27.3,26.6,00.0,36.0,29.1,11.0,0000.0,0005.31,0001.81,0001.22
2022-03-03 17:22:00,,0827.5,4.99,0.00,27.3,26.6,00.0,36.1,29.2,10.8,0000.0,0005.37,0001.83,0001.23
2022-03-03 17:23:00,,0827.5,5.00,0.00,27.3,26.6,00.0,36.1,29.2,10.6,0000.0,0005.46,0001.84,0001.24
2022-03-03 17:24:00,,0827.5,5.01,0.00,27.3,26.6,00.0,36.1,29.2,10.7,0000.0,0004.96,0001.83,0001.24
2022-03-03 17:25:00,,0827.4,4.98,0.00,27.3,26.7,00.0,36.1,29.2,10.6,0000.0,0004.53,0001.78,0001.24
2022-03-03 17:26:00,,0827.4,4.99,0.00,27.4,26.7,00.0,36.1,29.3,10.2,0000.0,0004.68,0001.79,0001.24
2022-03-03 17:27:00,,0827.4,5.00,0.00,27.4,26.7,00.0,36.2,29.3,09.8,0000.0,0005.26,0001.76,0001.25
2022-03-03 17:28:00,,0827.4,4.99,0.00,27.4,26.7,00.0,36.2,29.3,09.8,0000.0,0005.55,0001.73,0001.25
2022-03-03 17:29:00,,0827.4,4.99,0.00,27.4,26.8,00.0,36.2,29.3,09.5,0000.0,0005.22,0001.74,0001.26
2022-03-03 17:30:00,,0827.4,5.01,0.00,27.4,26.8,00.0,36.2,29.4,09.5,0000.0,0007.11,0001.76,0001.26
2022-03-03 17:31:00,,0827.4,5.00,0.00,27.5,26.8,00.0,36.3,29.4,09.7,0000.0,0008.27,0001.77,0001.26
2022-03-03 17:32:00,,0827.4,5.01,0.00,27.5,26.8,00.0,36.3,29.4,09.4,0000.0,0008.31,0001.80,0001.26
2022-03-03 17:33:00,,0827.4,5.00,0.00,27.5,26.8,00.0,36.3,29.4,09.3,0000.0,0008.41,0001.79,0001.26
2022-03-03 17:34:00,,0827.4,5.00,0.00,27.5,26.8,00.0,36.3,29.4,08.9,0000.0,0008.92,0001.75,0001.23
2022-03-03 17:35:00,,0827.3,4.98,0.00,27.6,26.9,00.0,36.3,29.4,08.7,0000.0,0008.29,0001.71,0001.21
2022-03-03 17:36:00,,0827.3,5.01,0.00,27.6,26.9,00.0,36.4,29.5,08.7,0000.0,0008.29,0001.72,0001.18
2022-03-03 17:37:00,,0827.4,5.00,0.00,27.6,26.9,00.0,36.4,29.5,09.1,0000.0,0009.40,0001.70,0001.18
2022-03-03 17:38:00,,0827.4,5.00,0.00,27.6,26.9,00.0,36.4,29.5,09.0,0000.0,0009.21,0001.66,0001.16
2022-03-03 17:39:00,,0827.4,5.00,0.00,27.6,26.9,00.0,36.4,29.5,08.8,0000.0,0008.99,0001.66,0001.14
2022-03-03 17:40:00,,0827.4,5.00,0.00,27.6,27.0,00.0,36.5,29.5,08.9,0000.0,0008.94,0001.63,0001.12
2022-03-03 17:41:00,,0827.4,5.00,0.00,27.7,27.0,00.0,36.5,29.5,08.9,0000.0,0008.12,0001.59,0001.10
2022-03-03 17:42:00,,0827.4,5.00,0.00,27.7,27.0,00.0,36.5,29.6,09.5,0000.0,0007.17,0001.62,0001.08
2022-03-03 17:43:00,,0827.4,4.99,0.00,27.7,27.0,00.0,36.5,29.6,09.5,0000.0,0008.02,0001.60,0001.04
2022-03-03 17:44:00,,0827.3,5.00,0.00,27.7,27.0,00.0,36.5,29.6,09.4,0000.0,0008.13,0001.59,0001.03
2022-03-03 17:45:00,,0827.3,5.00,0.00,27.7,27.0,00.0,36.6,29.6,10.3,0000.0,0008.13,0001.57,0001.02
2022-03-03 17:46:00,,0827.2,4.99,0.00,27.8,27.0,00.0,36.6,29.6,09.4,0000.0,0008.37,0001.52,0001.01
2022-03-03 17:47:00,,0827.3,5.00,0.00,27.8,27.1,00.0,36.6,29.6,09.1,0000.0,0008.25,0001.44,0000.99
2022-03-03 17:48:00,,0827.3,4.99,0.00,27.8,27.1,00.0,36.6,29.7,10.1,0000.0,0007.21,0001.40,0000.98
2022-03-03 17:49:00,,0827.2,5.01,0.00,27.8,27.1,00.0,36.6,29.7,09.8,0000.0,0007.93,0001.41,0000.98
2022-03-03 17:50:00,,0827.3,5.01,0.00,27.8,27.1,00.0,36.6,29.7,09.4,0000.0,0008.81,0001.41,0000.97
2022-03-03 17:51:00,,0827.3,5.00,0.00,27.8,27.1,00.0,36.7,29.7,09.2,0000.0,0008.82,0001.43,0000.97
2022-03-03 17:52:00,,0827.3,5.00,0.00,27.9,27.2,00.0,36.7,29.8,09.3,0000.0,0008.84,0001.47,0000.97
2022-03-03 17:53:00,,0827.3,5.00,0.00,27.9,27.2,00.0,36.7,29.8,09.4,0000.0,0008.85,0001.46,0000.96
2022-03-03 17:54:00,,0827.2,4.99,0.00,27.9,27.2,00.0,36.7,29.7,09.6,0000.0,0008.17,0001.48,0000.97
2022-03-03 17:55:00,,0827.2,5.00,0.00,27.9,27.2,00.0,36.7,29.8,09.2,0000.0,0007.74,0001.48,0000.98
2022-03-03 17:56:00,,0827.3,5.00,0.00,27.9,27.2,00.0,36.8,29.8,09.0,0000.0,0007.28,0001.49,0000.99
2022-03-03 17:57:00,,0827.2,5.00,0.00,27.9,27.3,00.0,36.8,29.8,08.9,0000.0,0006.68,0001.57,0001.02
2022-03-03 17:58:00,,0827.6,5.00,0.00,28.0,27.3,00.0,36.8,29.8,08.9,0000.0,0006.96,0001.67,0001.06
2022-03-03 17:59:00,,0827.7,5.00,0.00,28.0,27.3,00.0,36.8,29.9,09.2,0000.0,0006.96,0001.74,0001.07
